Orbital Elements at Epoch 2459200.5 (2020-Dec-17.0) TDB
Reference: JPL 26 (heliocentric ecliptic J2000)
Element | Value | Uncertainty (1-sigma) | Units |
e | .04259279751241032 | 3.3031e-08 | |
a | 2.997018219491811 | 1.7336e-08 | au |
q | 2.869366829327991 | 9.7424e-08 | au |
i | 11.57844244746568 | 3.8756e-06 | deg |
node | 186.6555654300654 | 1.801e-05 | deg |
peri | 51.98639077555003 | 6.41e-05 | deg |
M | 88.76962058687721 | 5.8178e-05 | deg |
tp | 2458733.201524246109 (2019-Sep-06.70152425) | 0.00030791 | TDB |
period | 1895.101614259572 5.19 | 1.6443e-05 4.502e-08 | d yr |
n | .189963428499666 | 1.6483e-09 | deg/d |
Q | 3.12466960965563 | 1.8075e-08 | au |
|
| | Orbit Determination Parameters
Additional Information
|